Location: Monfort
(47.1967°N, 0.2115°W)
Time: 12:07:37
(UTC+00:00)

Cosmos 1726 Rocket - Pass Details

Date: 24 October 2020
Orbit: 603 x 629 km, 82.5° (Epoch: 27 November)

Event Time Altitude Azimuth Distance (km) Brightness Sun altitude
Rises 17:38:53 0° 166° (SSE) 2,852 6.9 -7.8°
Reaches altitude 10° 17:41:11 10° 158° (SSE) 1,956 6.0 -8.2°
Maximum altitude 17:45:10 37° 91° (E) 961 4.1 -8.9°
Drops below altitude 10° 17:49:12 10° 25° (NNE) 1,985 5.8 -9.6°
Sets 17:51:33 0° 17° (NNE) 2,900 6.8 -10.0°
